LEMUR 2 DRMUZZ

Last updated on Fri Sep 30 2016 09:45:38 GMT+0000 (Coordinated Universal Time)

1 41595U 16019B 16274.15612404 .00051925 00000-0 54668-3 0 9998 2 41595 51.6390 249.6509 0006448 57.2837 302.8779 15.63734625 15722

Satellite not in orbit